Overview Statistics Trail Chart Weather Telemetry Raw packets
 

This is the latest recevied weather packets stored in our database for station/object OE-11190. If no packets are shown the sender has not sent any weather packets the latest 10 day(s).

<< 2 3 4 5 6 7 8 >>
Time Temp. Humidity Pressure Rain* Wind** Luminosity Snow
1788350107 27.22° C 40% 1018.9 hPa 0 mm - 735 W/m² -
1788349281 27.22° C 42% 1019.1 hPa 0 mm - 735 W/m² -
1788348908 27.22° C 42% 1019.3 hPa 0 mm - 735 W/m² -
1788348308 26.11° C 42% 1019.6 hPa 0 mm - 735 W/m² -
1788347481 26.67° C 44% 1019.7 hPa 0 mm - 735 W/m² -
1788347108 26.11° C 42% 1019.9 hPa 0 mm - 735 W/m² -
1788346507 26.67° C 44% 1019.9 hPa 0 mm - 735 W/m² -
1788345681 26.67° C 45% 1020 hPa 0 mm - 728 W/m² -
1788345308 26.11° C 46% 1020.1 hPa 0 mm - 728 W/m² -
1788344707 26.11° C 46% 1020.1 hPa 0 mm - 720 W/m² -
1788343881 25.56° C 45% 1020.5 hPa 0 mm - 713 W/m² -
1788343508 26.11° C 46% 1020.5 hPa 0 mm - 705 W/m² -
1788342908 26.11° C 48% 1020.4 hPa 0 mm - 690 W/m² -
1788342081 25.56° C 46% 1020.4 hPa 0 mm - 682 W/m² -
1788341708 25.56° C 47% 1020.6 hPa 0 mm - 667 W/m² -
1788341107 25° C 49% 1020.7 hPa 0 mm - 652 W/m² -
1788340280 25° C 49% 1020.7 hPa 0 mm - 637 W/m² -
1788339908 25.56° C 48% 1020.7 hPa 0 mm - 622 W/m² -
1788338480 25° C 48% 1020.8 hPa 0 mm - 591 W/m² -
1788338108 24.44° C 49% 1020.8 hPa 0 mm - 576 W/m² -
1788337508 24.44° C 50% 1020.9 hPa 0 mm - 561 W/m² -
1788336680 23.89° C 48% 1020.9 hPa 0 mm - 538 W/m² -
1788336308 23.33° C 49% 1020.9 hPa 0 mm - 516 W/m² -
1788335708 23.33° C 51% 1020.7 hPa 0 mm - 500 W/m² -
1788334881 23.33° C 52% 1020.7 hPa 0 mm - 470 W/m² -

* Rain latest hour (hover to see other rain measurements)
** Current wind speed in m/s (hover to see current wind gust speed)